Back to catalog

KOREASAT 5

AliveCommunicationsGEO
NORAD 29349·PAYLOAD·🇰🇷 South Korea

Launched Aug 22, 2006 from Sea Launch Platform

Loading…

TLE

FreshSource: Space-Track

Epoch: Sep 14, 2026, 14:20 UTC

1 29349U 06034A   26257.59754778 -.00000365  00000-0  00000-0 0  9999
2 29349   2.0091  81.7372 0001766 140.2002  99.8223  1.00272562 42215

Track KOREASAT 5 in real time with AllMySat

Download on the App Store